Temperature
22 22 21 21 20 20 22 23 23 23 22 22 22 21 21 20 20 18 19 19 19 19 19 19 19 19 19 19 19 19 19 19 19 19 19 19 19 18 18 19 19 19 19 18 18 18 18 18 18
23 22 21 21 20 20 22 23 23 23 23 22 22 21 21 20 19 19 19 19 19 19 19 19 19 19 19 19 19 19 19 19 19 19 19 19 19 18 19 19 19 18 18 18 18 18 18 18 18
23 22 21 20 21 21 22 23 24 24 23 23 22 21 21 20 19 19 19 19 19 19 19 19 19 19 19 19 19 19 19 19 19 19 19 19 19 19 19 19 19 18 18 18 18 18 18 18 18
23 22 22 21 22 23 24 24 24 24 23 23 22 21 20 20 20 20 19 20 20 19 19 19 19 19 19 19 19 19 19 19 19 19 19 19 19 19 19 19 19 18 18 18 18 18 18 18 18
23 23 21 22 23 25 25 25 24 24 23 22 21 20 20 20 20 20 20 20 20 20 19 19 19 19 19 19 19 19 19 19 19 19 19 19 18 18 18 19 18 18 18 18 18 18 18 18 18
23 22 22 22 24 25 25 25 24 23 23 22 21 20 20 20 20 20 20 20 20 20 20 19 19 19 19 19 19 19 19 19 19 19 19 18 18 18 18 18 18 18 18 18 18 18 18 18 18
23 22 23 24 24 25 25 25 24 23 23 23 22 20 20 20 20 20 20 20 20 20 20 19 19 19 19 19 19 19 19 19 19 19 19 18 18 18 18 18 18 18 18 18 18 18 18 18 18
25 23 24 24 24 25 26 26 25 24 23 23 22 21 20 20 20 20 20 20 20 20 20 19 19 19 19 19 19 19 19 19 19 19 18 18 18 18 18 18 18 18 18 18 18 18 18 18 18
27 23 23 24 25 25 26 25 25 24 24 23 23 22 21 21 21 20 20 20 20 20 19 19 19 19 19 19 19 19 19 19 19 18 18 18 18 18 18 18 18 18 18 18 18 18 18 18 18
26 23 24 26 25 25 26 25 25 24 23 22 22 22 21 21 21 20 20 20 20 20 19 19 19 19 19 19 19 19 19 19 19 18 18 18 18 18 18 18 18 18 18 18 18 18 18 18 18
26 25 26 27 28 27 26 26 25 24 22 22 22 21 21 21 21 21 20 20 20 20 20 19 19 19 19 19 19 19 19 19 19 19 18 18 18 18 18 18 18 18 18 18 18 18 18 18 18
28 28 28 28 28 27 26 26 25 24 24 23 23 22 21 21 21 21 21 20 20 20 20 20 19 19 19 19 19 19 19 19 19 18 18 18 18 18 18 18 18 18 18 18 18 18 18 18 18
28 28 29 28 28 27 27 26 25 25 24 23 23 22 22 21 21 21 21 21 20 20 20 20 20 19 19 19 19 19 19 19 19 18 18 18 18 18 18 18 18 18 18 18 18 18 18 18 18
28 28 28 28 28 28 26 26 25 24 24 23 23 22 22 22 22 21 21 21 21 20 20 20 20 20 19 19 19 19 19 19 19 19 18 18 18 18 18 18 18 18 18 18 18 18 18 18 18
29 27 27 27 28 27 26 25 25 25 24 23 23 23 22 22 22 22 21 21 21 20 20 20 20 20 19 19 19 19 19 19 19 18 18 18 18 18 18 18 18 18 18 18 18 18 18 17 17
28 26 26 27 27 27 25 24 25 25 24 24 23 23 23 22 22 22 22 21 21 21 20 20 20 20 19 19 19 19 19 19 19 18 18 18 18 18 18 18 18 18 18 18 18 18 17 17 17
25 25 26 27 28 27 25 24 25 25 25 24 24 23 23 23 22 22 22 22 21 21 21 20 20 20 20 19 19 19 19 19 19 18 18 18 18 18 18 18 18 18 18 18 18 17 18 17 17
25 25 26 26 27 27 25 24 25 26 25 24 24 23 23 23 23 22 22 22 21 21 21 20 20 20 19 19 19 19 19 19 19 18 18 18 18 18 18 18 18 18 18 18 18 18 18 17 17
27 26 26 27 28 27 26 25 25 25 25 25 24 23 23 23 23 23 22 22 21 21 21 21 20 20 20 19 19 19 19 19 19 19 18 18 18 18 18 18 18 18 18 18 18 18 18 17 17
28 27 27 27 28 27 25 25 25 25 25 25 24 24 24 23 23 23 22 22 22 21 21 21 20 20 20 20 19 19 19 19 19 19 18 18 18 18 18 18 18 18 18 18 18 18 18 17 17
28 27 27 27 27 26 25 24 25 25 26 25 25 24 24 24 23 23 22 22 22 22 21 21 21 20 20 20 19 19 19 19 19 19 19 18 18 18 18 18 18 18 18 18 18 18 18 17 17
27 28 28 28 25 24 25 23 24 24 24 24 24 24 24 24 24 23 23 22 22 22 22 21 21 21 20 20 20 19 19 19 19 19 19 18 18 18 18 18 18 18 18 18 18 18 17 17 18
28 29 28 27 25 24 24 23 23 24 24 24 24 24 24 24 24 24 23 23 23 22 22 22 21 21 20 20 20 20 20 19 19 19 19 18 18 18 18 18 18 18 18 18 18 17 17 17 18
29 28 26 24 22 23 24 23 23 23 24 25 25 25 25 24 24 24 24 23 23 22 22 22 21 21 21 20 20 20 20 19 19 19 19 18 18 18 18 18 18 18 18 18 18 18 17 17 17
27 24 23 24 22 23 23 24 23 25 25 26 25 25 25 25 24 24 23 23 23 23 22 22 22 21 21 21 20 20 20 20 19 19 19 19 19 19 18 18 18 18 18 18 18 17 17 17 17
27 24 23 24 23 23 24 24 24 26 27 27 27 26 25 25 24 24 24 24 23 23 23 23 22 22 21 21 21 20 20 20 20 19 19 19 19 19 19 18 18 18 18 18 18 17 17 17 17
27 25 23 22 23 23 23 25 25 25 25 26 26 25 25 25 25 24 24 24 24 23 23 23 23 22 22 21 21 21 20 20 20 20 19 19 19 19 18 18 18 18 18 18 18 18 17 17 17
27 26 22 22 23 23 24 24 23 24 24 24 25 25 25 25 25 24 24 24 24 24 23 23 23 22 22 22 21 21 21 20 20 20 19 19 19 19 18 18 18 18 18 18 18 18 17 17 17
27 26 23 21 21 22 23 23 25 24 24 24 24 25 25 25 24 24 24 24 24 24 23 23 22 22 22 22 21 21 21 20 20 20 20 19 19 19 19 18 18 18 18 18 18 18 17 17 17
27 26 23 23 23 21 22 23 25 24 24 24 25 25 25 25 25 24 24 24 23 23 23 23 22 22 22 22 21 21 20 20 20 20 20 19 19 19 19 18 18 18 18 18 18 18 17 17 17
Wind_Speed
11 8 3 1 3 5 6 5 7 8 6 7 11 11 10 7 6 6 3 7 7 4 5 8 9 10 10 10 11 11 12 12 12 12 12 12 13 12 12 13 13 14 15 16 15 14 15 15 17
8 5 1 1 5 6 5 6 10 11 10 11 11 12 10 8 6 7 4 7 8 7 6 8 10 10 10 10 10 10 11 11 11 11 12 12 12 12 12 13 13 14 15 15 14 14 15 16 17
7 3 1 3 4 5 5 7 12 13 11 8 6 7 6 5 6 5 6 10 8 7 6 8 10 9 10 10 9 9 10 10 11 11 11 12 12 11 12 13 13 13 14 14 14 13 13 15 15
4 1 2 5 7 5 7 8 12 12 9 8 8 7 5 4 4 7 10 10 9 6 6 8 9 9 10 10 9 9 9 9 10 10 11 11 11 11 12 12 12 12 12 12 13 13 13 13 14
1 2 4 5 6 7 10 11 12 11 6 9 10 9 5 4 10 13 11 10 9 6 5 8 9 9 9 9 9 9 8 9 9 10 11 11 11 11 11 11 11 11 12 12 11 12 12 13 13
1 3 5 5 8 8 9 11 14 15 13 11 10 8 4 5 9 11 10 9 9 7 6 7 9 9 8 8 8 8 8 9 10 10 10 10 11 11 10 10 10 10 10 11 11 12 11 11 12
3 4 5 7 8 8 8 9 11 12 11 8 8 7 4 4 7 9 10 9 7 7 6 5 6 7 7 7 7 7 8 8 9 9 10 10 10 10 10 9 9 9 9 11 11 12 11 10 10
4 4 6 5 8 7 8 8 10 12 10 10 7 7 6 6 7 9 8 7 7 5 4 4 4 4 5 5 6 6 7 8 8 8 9 9 9 9 9 8 8 9 9 10 11 10 10 10 9
4 5 5 6 8 8 11 12 8 8 10 6 5 7 10 11 9 9 7 5 4 5 4 4 4 4 4 4 4 4 5 6 6 6 7 7 6 6 6 6 8 8 9 10 10 10 9 8 8
5 6 7 7 9 10 11 12 9 7 11 9 10 10 12 11 10 9 8 7 5 5 4 3 3 3 4 4 4 4 4 4 4 4 5 5 5 5 6 6 7 8 9 9 9 9 8 6 6
6 7 6 7 9 10 11 9 7 11 9 10 14 14 12 10 9 8 7 7 7 6 5 4 4 3 3 3 4 3 3 3 3 4 5 5 4 4 4 4 4 5 6 5 6 5 5 4 4
8 7 7 7 8 9 9 9 8 8 10 13 15 14 11 10 9 8 8 7 6 6 6 4 4 3 3 3 3 3 3 2 2 3 5 4 3 3 3 2 3 3 4 5 5 4 5 5 5
9 7 8 9 10 10 11 10 9 10 13 14 15 13 11 10 9 8 7 7 7 6 5 5 5 4 3 3 3 4 4 4 4 5 5 5 3 3 3 3 3 3 4 4 4 4 4 5 5
7 8 8 8 9 10 13 9 8 11 14 14 13 11 11 10 9 8 7 7 7 6 5 5 5 4 4 3 2 3 4 5 4 4 5 5 4 4 3 3 3 3 4 5 5 5 4 4 5
7 8 5 5 7 7 11 6 8 13 14 13 12 11 10 9 9 10 9 8 8 7 6 6 5 4 4 4 3 3 4 5 4 3 5 5 5 5 4 3 3 4 5 6 6 5 5 5 5
5 5 3 3 6 6 10 6 7 12 14 12 11 11 10 9 9 9 9 8 8 7 6 5 6 5 4 4 4 4 4 4 3 4 4 5 5 6 5 4 3 4 5 5 4 4 5 4 4
3 2 3 2 4 6 7 6 9 10 13 12 11 11 10 9 8 8 9 9 8 8 7 5 5 5 4 4 4 4 4 4 3 4 4 5 6 7 6 4 3 5 4 3 4 4 4 4 4
4 4 4 4 5 6 6 7 11 11 11 11 11 10 10 10 9 10 9 9 8 8 7 6 5 5 4 3 4 3 3 2 3 3 4 5 5 7 6 4 4 5 4 3 3 4 3 3 3
6 5 5 5 5 6 7 8 10 9 8 9 9 10 10 9 9 10 10 10 8 7 6 6 5 4 4 3 3 3 2 1 1 2 4 5 5 6 6 4 4 4 3 3 4 4 4 2 3
4 4 3 2 4 6 6 5 6 9 12 12 13 12 11 9 8 9 9 9 8 8 7 6 6 5 4 3 3 3 3 2 2 2 2 4 5 6 6 5 3 3 3 3 3 4 3 2 3
4 5 5 5 2 4 6 1 3 5 6 8 10 11 11 13 12 11 10 9 9 8 8 7 6 5 4 4 3 3 3 2 2 1 1 2 4 5 5 6 5 4 4 4 3 4 4 3 2
4 5 6 6 5 2 4 3 5 6 6 9 10 11 12 11 11 11 11 10 10 10 8 8 7 6 5 5 5 5 4 3 3 2 2 1 3 4 5 5 5 4 3 4 3 3 3 4 2
6 6 5 4 5 2 1 4 6 4 7 10 12 14 14 13 14 13 13 12 11 10 9 8 8 7 5 6 6 5 4 3 2 2 2 1 1 2 3 4 4 4 3 3 3 3 3 3 3
4 5 5 5 5 1 4 4 5 6 12 12 13 14 14 14 13 12 11 10 9 9 9 9 8 7 6 6 6 6 6 5 4 3 3 1 0 0 1 3 3 3 3 3 3 3 3 2 2
6 6 4 4 4 4 3 3 8 11 11 13 15 14 13 13 13 12 11 11 11 11 10 9 9 8 7 7 6 7 7 6 6 5 4 3 2 1 2 2 3 2 3 3 3 3 2 2 2
3 9 7 5 4 3 1 4 7 8 8 8 10 10 12 12 12 12 13 13 12 13 11 10 10 8 8 7 7 6 6 5 4 5 4 4 3 3 3 3 3 3 3 3 3 2 2 2 2
3 3 8 7 2 1 3 3 5 2 5 6 8 9 10 11 12 12 12 12 12 12 11 12 11 9 8 8 7 6 6 5 5 4 4 3 3 3 3 3 3 3 3 3 3 2 2 2 2
6 7 6 5 4 0 3 2 4 3 4 5 8 10 10 10 10 10 10 10 10 10 10 10 10 10 9 8 7 6 6 6 5 4 4 4 4 3 3 3 3 3 3 3 3 2 2 2 2
2 3 5 5 6 6 2 6 6 8 7 7 7 9 10 10 10 9 8 8 8 8 8 8 9 8 8 7 6 6 5 5 5 4 4 4 4 4 4 4 3 3 3 3 3 3 3 3 2
4 5 6 5 3 5 5 6 5 8 7 7 7 7 8 9 9 8 8 7 7 7 7 7 7 8 8 7 7 6 6 6 5 5 5 5 4 4 4 4 3 3 3 3 4 4 3 4 3
Wind_Direction
162 166 164 177 55 61 77 84 97 85 69 69 79 82 80 66 88 121 173 145 134 128 123 110 102 100 96 93 93 93 90 91 95 100 103 106 107 108 111 118 122 129 134 136 137 137 137 140 144
163 167 151 42 73 78 73 96 92 94 115 111 87 83 78 72 85 115 137 144 136 131 123 114 107 102 101 99 97 98 96 94 95 101 106 109 108 110 113 118 122 124 129 133 136 137 137 139 141
164 164 95 57 80 113 115 109 109 103 104 98 87 67 70 96 113 134 153 143 130 126 128 123 110 106 106 105 103 104 102 101 101 106 111 114 112 111 114 119 123 126 129 131 135 136 138 140 142
146 117 50 78 94 113 128 127 116 107 86 79 93 75 67 89 123 136 138 135 129 131 137 127 114 113 113 110 107 110 109 108 108 111 116 116 116 114 113 116 120 124 128 129 132 136 135 140 142
102 97 70 86 98 108 111 119 116 104 93 91 93 95 82 84 113 128 135 137 135 139 140 131 123 122 120 117 112 111 114 113 114 114 116 118 117 117 114 116 119 122 127 132 131 133 131 133 139
101 85 88 103 108 108 115 119 110 105 109 107 102 101 98 120 122 136 142 141 141 143 141 135 129 128 125 123 118 115 117 120 120 119 119 122 123 118 117 120 121 123 125 130 130 135 132 135 140
131 99 116 119 110 113 125 125 120 124 122 121 122 103 117 130 139 138 139 139 140 142 139 135 136 135 132 128 123 121 118 120 123 123 125 125 126 122 122 123 125 124 123 126 127 131 134 135 135
164 105 102 105 110 116 128 115 124 125 119 131 125 124 151 169 144 128 129 129 136 140 143 148 141 136 138 136 129 129 125 121 124 127 128 128 128 128 128 127 129 127 125 129 132 134 135 135 134
129 94 127 141 130 133 122 104 105 107 113 115 108 129 150 151 136 122 121 123 136 140 144 144 147 157 162 152 140 137 129 121 123 132 134 128 124 129 127 132 133 132 130 134 137 133 132 132 129
127 131 160 157 147 141 132 123 126 114 109 105 106 118 135 139 135 132 136 145 149 151 152 144 142 148 156 150 145 138 124 111 114 121 125 120 126 135 135 140 138 137 136 133 132 131 126 121 116
136 141 144 138 144 134 128 128 121 123 123 141 141 143 143 139 141 145 149 151 158 158 149 149 148 145 140 130 136 133 126 109 108 117 121 118 114 118 124 129 130 126 126 124 120 117 110 111 112
113 129 134 135 129 121 124 129 118 128 146 148 145 147 147 145 149 153 152 151 147 146 150 148 139 128 127 128 132 131 125 115 117 111 111 113 116 112 123 128 122 114 120 120 114 105 103 107 110
108 119 114 120 123 123 115 121 124 130 136 138 141 143 147 150 151 154 152 148 143 139 141 140 138 133 123 113 117 120 127 127 123 115 114 117 117 116 115 117 116 117 118 119 117 108 105 106 105
133 124 118 123 118 119 119 125 118 140 141 140 144 148 154 155 153 148 149 146 144 147 149 143 138 137 121 114 111 121 126 127 119 121 131 123 125 123 116 103 102 115 123 126 122 115 107 101 102
110 104 91 124 120 128 114 103 139 151 147 147 151 153 154 156 154 155 160 155 150 149 149 147 142 135 128 133 130 126 122 124 122 123 128 126 122 123 120 107 103 116 122 117 111 104 100 101 100
82 86 113 193 136 142 115 145 170 158 152 156 157 156 155 159 159 160 157 151 148 147 147 150 144 131 125 125 122 114 112 115 121 127 129 125 126 125 118 112 111 119 115 113 110 106 104 100 101
45 131 168 204 177 142 121 164 181 169 160 162 161 160 159 159 158 163 160 157 154 151 146 139 135 134 134 125 110 109 114 114 119 122 127 129 131 132 128 123 123 123 112 111 125 114 119 117 115
208 179 176 190 198 143 140 177 177 175 169 168 165 163 163 167 172 171 160 155 153 148 143 138 131 133 130 115 98 92 89 98 109 120 130 132 130 132 128 128 130 124 112 110 116 122 120 125 132
192 185 194 206 181 135 154 168 174 174 169 167 166 168 172 178 173 164 160 154 149 145 142 139 134 137 126 118 122 123 127 126 113 125 130 127 130 135 131 126 128 125 130 145 143 130 123 123 120
200 162 160 173 163 134 140 167 188 183 183 177 170 172 173 165 160 163 161 159 158 159 155 149 149 150 149 155 149 148 146 144 145 129 125 126 129 135 141 133 142 140 138 138 143 136 134 156 152
219 172 168 171 136 87 106 52 208 207 182 175 172 172 171 170 171 172 168 171 166 166 166 162 162 165 166 151 125 117 96 78 72 98 140 146 141 140 142 147 146 153 154 159 171 162 155 176 206
218 194 172 156 120 180 140 176 243 210 196 183 181 179 182 177 171 173 174 175 176 176 169 161 165 171 166 150 141 144 150 158 179 170 157 145 141 144 148 151 151 155 159 164 182 172 164 161 183
204 175 163 159 131 93 88 132 268 202 206 201 189 185 185 182 177 178 180 180 178 173 169 168 167 174 167 156 154 148 150 164 159 131 126 118 105 148 148 152 154 158 163 171 176 165 158 162 170
141 78 55 59 77 84 225 153 248 213 208 198 193 189 186 183 182 182 180 172 173 171 170 171 170 177 174 166 160 156 159 157 144 142 144 153 139 187 167 149 154 162 166 174 177 174 163 166 170
97 91 41 10 17 247 232 170 236 226 205 191 189 190 186 180 179 180 175 175 175 176 177 174 173 179 179 172 170 171 169 164 164 169 170 173 180 197 208 174 165 174 181 180 169 164 172 178 179
171 136 155 189 214 269 289 216 252 230 194 182 178 174 173 175 178 180 181 181 182 181 179 177 177 180 179 177 179 176 173 170 173 175 173 181 194 203 194 177 181 188 183 184 169 175 193 182 188
144 168 168 142 141 85 288 290 328 50 130 150 159 157 165 176 179 181 181 182 184 182 182 181 178 180 182 181 176 174 175 174 179 182 179 189 196 197 184 182 186 192 185 181 175 190 206 190 198
158 161 95 106 132 212 301 275 232 212 179 164 164 165 171 173 175 176 180 180 180 179 180 179 179 183 182 180 182 184 182 180 180 179 185 190 196 194 186 186 193 202 200 188 180 192 203 191 215
28 75 105 119 146 148 208 270 229 197 186 174 171 164 164 162 164 165 170 173 164 159 165 172 178 178 178 181 183 180 183 187 184 187 196 196 197 196 192 193 190 196 200 194 185 198 192 195 224
162 161 142 147 201 159 166 254 247 183 181 174 167 154 156 159 159 157 156 152 152 155 158 162 167 172 177 176 174 182 184 184 190 198 202 198 200 205 201 196 194 204 207 203 197 206 201 198 213
Height
1497 1497 1498 1499 1502 1510 1512 1507 1501 1501 1502 1503 1502 1503 1506 1510 1514 1522 1519 1518 1518 1517 1517 1516 1515 1515 1514 1512 1511 1511 1510 1509 1508 1508 1508 1508 1508 1508 1507 1507 1507 1507 1508 1511 1513 1515 1516 1518 1520
1498 1498 1500 1500 1508 1522 1518 1506 1504 1503 1505 1504 1505 1507 1508 1512 1514 1517 1518 1519 1519 1518 1517 1517 1516 1516 1515 1514 1513 1512 1511 1511 1510 1509 1509 1510 1510 1509 1508 1509 1509 1510 1511 1513 1515 1517 1518 1520 1522
1499 1499 1501 1503 1511 1519 1516 1506 1504 1505 1506 1505 1507 1509 1511 1515 1516 1517 1519 1520 1519 1519 1518 1518 1517 1516 1516 1515 1514 1513 1513 1512 1511 1511 1511 1511 1511 1511 1510 1511 1512 1513 1514 1515 1517 1518 1520 1522 1524
1499 1501 1503 1508 1512 1507 1505 1505 1503 1505 1507 1508 1508 1512 1515 1517 1518 1519 1520 1521 1520 1520 1520 1519 1518 1517 1517 1516 1515 1514 1514 1513 1513 1513 1513 1513 1513 1513 1513 1513 1514 1515 1516 1518 1519 1520 1522 1523 1525
1500 1502 1508 1513 1510 1504 1503 1503 1504 1505 1508 1511 1510 1515 1518 1520 1519 1520 1521 1522 1522 1521 1521 1520 1519 1518 1518 1518 1517 1516 1515 1515 1515 1515 1515 1515 1515 1515 1516 1516 1516 1517 1518 1519 1520 1522 1524 1525 1527
1501 1502 1515 1519 1511 1505 1504 1504 1505 1508 1511 1513 1514 1516 1520 1522 1521 1522 1522 1523 1523 1523 1522 1522 1521 1520 1520 1519 1518 1518 1517 1517 1516 1516 1517 1517 1518 1518 1519 1519 1519 1520 1521 1521 1522 1523 1526 1528 1529
1501 1505 1512 1512 1511 1509 1506 1505 1506 1508 1511 1514 1515 1517 1522 1523 1523 1523 1524 1525 1525 1525 1524 1523 1522 1522 1521 1521 1520 1519 1519 1518 1519 1519 1519 1520 1520 1521 1521 1521 1522 1522 1523 1523 1524 1526 1528 1530 1531
1499 1504 1511 1512 1512 1510 1506 1505 1507 1509 1512 1515 1515 1517 1521 1523 1524 1525 1526 1526 1526 1526 1526 1525 1524 1524 1523 1522 1522 1521 1521 1521 1521 1521 1521 1522 1522 1523 1523 1524 1524 1525 1525 1526 1527 1528 1530 1532 1533
1498 1507 1515 1511 1510 1509 1505 1506 1510 1511 1512 1515 1516 1517 1520 1523 1524 1525 1526 1527 1527 1527 1527 1526 1526 1525 1524 1524 1524 1523 1523 1523 1523 1523 1524 1524 1524 1525 1525 1526 1527 1527 1527 1528 1529 1530 1532 1534 1535
1496 1508 1507 1501 1501 1503 1504 1506 1509 1513 1514 1517 1518 1520 1521 1523 1525 1525 1526 1527 1527 1528 1528 1528 1527 1526 1526 1525 1525 1525 1525 1525 1525 1525 1526 1526 1526 1527 1527 1527 1528 1528 1529 1530 1532 1533 1534 1536 1537
1493 1499 1497 1498 1499 1501 1504 1507 1509 1512 1516 1517 1517 1520 1522 1524 1525 1526 1526 1527 1528 1528 1528 1529 1528 1528 1527 1527 1526 1526 1526 1526 1527 1527 1528 1528 1528 1528 1529 1529 1529 1530 1531 1532 1533 1534 1536 1537 1538
1493 1494 1496 1498 1500 1502 1505 1507 1511 1511 1515 1516 1518 1520 1522 1524 1525 1526 1526 1527 1528 1529 1529 1529 1529 1529 1528 1528 1528 1528 1528 1528 1528 1529 1529 1530 1530 1530 1530 1531 1531 1531 1532 1533 1535 1536 1537 1538 1539
1494 1496 1497 1498 1500 1502 1505 1508 1511 1513 1515 1518 1519 1521 1523 1524 1525 1526 1527 1528 1529 1529 1530 1530 1530 1530 1530 1530 1529 1529 1529 1530 1530 1530 1530 1531 1531 1531 1532 1532 1532 1533 1534 1535 1536 1537 1538 1539 1541
1496 1497 1498 1500 1501 1504 1506 1510 1512 1516 1517 1519 1520 1522 1523 1524 1525 1526 1527 1528 1529 1530 1530 1531 1531 1531 1531 1531 1531 1531 1531 1531 1531 1532 1532 1532 1532 1532 1533 1534 1534 1535 1536 1537 1538 1539 1540 1541 1542
1496 1500 1503 1503 1503 1506 1509 1515 1514 1515 1517 1519 1520 1522 1523 1524 1525 1526 1527 1528 1529 1530 1531 1531 1531 1531 1531 1530 1531 1532 1532 1532 1533 1533 1533 1534 1534 1534 1534 1535 1536 1536 1537 1538 1539 1540 1541 1543 1544
1499 1507 1515 1507 1504 1506 1513 1525 1516 1516 1517 1519 1520 1522 1523 1525 1525 1526 1527 1528 1529 1530 1531 1532 1532 1532 1532 1532 1533 1533 1534 1534 1534 1534 1535 1535 1535 1535 1535 1536 1537 1538 1539 1540 1541 1542 1543 1544 1545
1510 1519 1518 1511 1503 1505 1511 1520 1515 1515 1516 1518 1520 1521 1523 1524 1526 1527 1528 1529 1529 1530 1531 1532 1532 1533 1533 1534 1534 1535 1535 1535 1536 1536 1536 1536 1536 1537 1537 1538 1538 1539 1540 1541 1542 1543 1543 1544 1545
1521 1518 1516 1514 1505 1504 1510 1514 1512 1514 1515 1517 1519 1521 1522 1523 1524 1526 1527 1528 1529 1531 1531 1532 1533 1533 1534 1535 1535 1535 1536 1536 1537 1537 1537 1537 1538 1538 1538 1539 1540 1541 1541 1542 1542 1543 1544 1545 1546
1505 1511 1514 1508 1500 1505 1511 1512 1512 1513 1515 1517 1519 1520 1521 1522 1524 1525 1527 1528 1529 1530 1531 1532 1533 1534 1534 1535 1535 1536 1536 1537 1537 1538 1538 1538 1539 1539 1540 1540 1541 1541 1542 1542 1543 1544 1545 1546 1547
1502 1509 1511 1505 1499 1505 1513 1515 1511 1511 1512 1513 1515 1517 1519 1521 1523 1525 1526 1527 1528 1530 1531 1532 1533 1534 1535 1535 1536 1537 1537 1538 1538 1539 1539 1539 1540 1540 1541 1541 1541 1542 1542 1543 1544 1544 1545 1546 1547
1502 1507 1508 1509 1505 1506 1515 1522 1516 1511 1511 1512 1514 1515 1517 1519 1520 1523 1524 1526 1527 1528 1530 1531 1532 1533 1534 1535 1536 1537 1537 1538 1538 1539 1539 1540 1540 1541 1541 1541 1541 1542 1542 1543 1543 1544 1544 1545 1546
1504 1494 1497 1503 1514 1524 1520 1540 1522 1513 1511 1511 1512 1513 1515 1517 1518 1520 1522 1524 1525 1527 1529 1530 1531 1532 1534 1535 1535 1536 1536 1537 1537 1538 1539 1540 1540 1541 1541 1541 1541 1542 1542 1542 1543 1543 1544 1544 1544
1493 1488 1494 1500 1512 1524 1522 1535 1528 1514 1515 1509 1508 1509 1511 1514 1515 1517 1519 1521 1523 1526 1527 1529 1530 1532 1533 1534 1535 1535 1536 1536 1537 1538 1539 1539 1540 1540 1541 1541 1541 1541 1541 1541 1542 1542 1543 1543 1543
1484 1493 1500 1509 1521 1538 1526 1532 1530 1516 1507 1503 1504 1506 1508 1510 1513 1515 1517 1520 1522 1524 1526 1528 1529 1530 1532 1533 1534 1534 1535 1536 1537 1537 1538 1538 1539 1539 1540 1540 1540 1540 1540 1540 1540 1541 1541 1542 1542
1488 1510 1533 1538 1547 1542 1522 1526 1522 1499 1494 1495 1497 1501 1504 1507 1510 1513 1515 1518 1520 1522 1524 1526 1527 1529 1530 1531 1532 1533 1534 1535 1535 1536 1537 1537 1538 1538 1538 1539 1539 1539 1539 1539 1539 1540 1540 1540 1541
1491 1505 1532 1545 1549 1539 1523 1524 1508 1489 1489 1492 1495 1499 1503 1506 1508 1510 1513 1515 1518 1520 1522 1524 1525 1527 1529 1530 1531 1532 1533 1533 1534 1535 1535 1536 1536 1537 1537 1537 1537 1537 1537 1537 1538 1538 1538 1539 1539
1491 1501 1503 1524 1531 1539 1530 1515 1501 1490 1491 1493 1496 1499 1502 1504 1506 1508 1511 1513 1516 1518 1520 1522 1523 1525 1527 1528 1529 1530 1531 1532 1533 1533 1534 1535 1535 1535 1536 1536 1536 1536 1536 1536 1536 1536 1536 1537 1537
1481 1489 1508 1523 1539 1546 1534 1524 1519 1502 1497 1494 1495 1496 1499 1502 1504 1507 1510 1512 1514 1516 1518 1521 1522 1524 1525 1527 1528 1529 1530 1531 1531 1532 1532 1533 1534 1534 1534 1534 1534 1534 1534 1534 1534 1534 1534 1535 1535
1487 1493 1504 1519 1524 1540 1545 1531 1497 1495 1492 1493 1493 1494 1496 1499 1502 1505 1508 1510 1512 1514 1517 1519 1521 1522 1524 1525 1527 1528 1529 1530 1530 1530 1531 1532 1532 1532 1532 1532 1532 1531 1531 1532 1532 1532 1532 1533 1533
1480 1488 1501 1518 1524 1527 1534 1526 1487 1488 1488 1490 1492 1493 1495 1497 1500 1503 1506 1509 1511 1513 1515 1517 1519 1521 1522 1524 1525 1526 1527 1528 1528 1529 1529 1530 1530 1530 1530 1530 1529 1529 1529 1530 1530 1530 1530 1530 1531